Weather Roundup
Issued by NWS Chicago, IL

Home | Current Version | Previous Version | Graphics & Text | Print | Product List | Glossary On
Versions: 1 2 3 4 5 6 7 8 9 10 11 12 13 14 15 16 17 18 19 20 21 22 23 24 25 26 27 28 29 30 31 32 33 34 35 36 37 38 39 40 41 42 43 44 45 46 47 48 49 50
000
NZUS59 KLOT 301408
HRRLOT

CHICAGO AREA WEATHER ROUNDUP
NATIONAL WEATHER SERVICE CHICAGO/ROMEOVILLE IL
900 AM CDT SUN AUG 30 2015

NOTE: "FAIR" INDICATES FEW OR NO CLOUDS BELOW 12,000 FEET WITH NO
SIGNIFICANT WEATHER AND/OR OBSTRUCTIONS TO VISIBILITY.

* THESE STATIONS ARE NOT UNDER NWS QUALITY CONTROL. THEY ALSO MAY NOT
  REPORT WEATHER SUCH AS PRECIPITATION OR FOG.

ILZ005-006-012>014-019>023-301500-
NORTHEAST ILLINOIS

CITY           SKY/WX    TMP DP  RH WIND       PRES   REMARKS
OHARE          CLOUDY    67  63  87 CALM      30.07S FOG
MIDWAY         CLOUDY    69  63  81 NE3       30.08R FOG
AURORA         CLOUDY    67  64  90 CALM      30.09S FOG
LANSING*       CLOUDY    66  64  96 CALM      30.08S FOG
JOLIET*        CLOUDY    69  65  89 CALM      30.08S FOG
WAUKEGAN       FOG       64  64 100 VRB5      30.08R VSB 1/4
DUPAGE AIRPORT CLOUDY    68  63  84 NE5       30.08R
WHEELING       CLOUDY    67  63  87 N3        30.09R FOG
KANKAKEE*      CLOUDY    67  66  97 NE7       30.08S FOG
MORRIS*        CLOUDY    67  65  93 E3        30.07S FOG
LEWIS AIRPORT* CLOUDY    67  64  90 E3        30.08S FOG
NORTHERLY IS     N/A     65  63  93 MISG        N/A
$$

WIZ051-052-058>065-066-070>072-301500-
SOUTHEAST WISCONSIN

CITY           SKY/WX    TMP DP  RH WIND       PRES   REMARKS
MILWAUKEE      FOG       64  62  93 NE3       30.08S VSB 1/4
KENOSHA*       CLOUDY    65  64  97 N6        30.09S FOG
RACINE*        FOG       64  62  93 N5        30.10R VSB 1/2
BURLINGTON     CLOUDY    63  61  91 N3        30.09S
WAUKESHA       CLOUDY    63  61  94 CALM      30.10R FOG
WEST BEND      CLOUDY    61  61 100 CALM      30.09R FOG
$$

INZ001>003-010>013-019-020-301500-
NORTHWEST INDIANA

CITY           SKY/WX    TMP DP  RH WIND       PRES   REMARKS
GARY*          CLOUDY    68  64  88 VRB3      30.09R FOG
MICHIGAN CITY* NOT AVBL
RENSSELAER*    NOT AVBL
VALPARAISO     CLOUDY    69  65  86 NE5       30.08S FOG
$$

LMZ740>746-301500-
SOUTHERN LAKE MICHIGAN

STATION/POSITION TIME  SKY/WX   TEMP WIND        PRES    VSBY
                                AIR  DIR/SP/G
                 (UTC)          (F)  (DEG/KT/KT) (MB)    (MI)
HARRISON CRIB    1300            63  330/  7/  8   N/A
BURNHAM HARBOR   1400            65   10/  5/  6   N/A
CALUMET HARBOR   NOT AVBL
BURNS HARBOR     1300            67  290/  1/  5 1018.6R
MICHIGAN CITY    1300            68  310/  5/  6   N/A
$$

ABBREVIATIONS USED IN REMARKS
   TC - TEMPERATURE IN CELSIUS
  WCI - WIND CHILL INDEX
   HX - HEAT INDEX
  VSB - VISIBILITY
$$


USA.gov is the U.S. government's official web portal to all federal, state and local government web resources and services.